Time,TemperatureF,DewpointF,PressureIn,WindDirection,WindDirectionDegrees,WindSpeedMPH,WindSpeedGustMPH,Humidity,HourlyPrecipIn,Conditions,Clouds,dailyrainin,SolarRadiationWatts/m^2,SoftwareType,DateUTC
2013-03-09 00:01:00,51.3,28.0,30.18,East,83,0.0,3.0,40,0.00,,,0.00,0,weatherlink.com 1.10,2013-03-09 06:01:00,
2013-03-09 00:16:00,52.0,28.0,30.17,SE,135,1.0,4.0,40,0.00,,,0.00,0,weatherlink.com 1.10,2013-03-09 06:16:00,
2013-03-09 00:31:00,52.9,28.0,30.17,SE,134,3.0,7.0,38,0.00,,,0.00,0,weatherlink.com 1.10,2013-03-09 06:31:00,
2013-03-09 00:46:00,53.4,28.0,30.17,ESE,111,4.0,9.0,38,0.00,,,0.00,0,weatherlink.com 1.10,2013-03-09 06:46:00,
2013-03-09 01:01:00,53.5,28.0,30.17,SE,125,4.0,9.0,37,0.00,,,0.00,0,weatherlink.com 1.10,2013-03-09 07:01:00,
2013-03-09 01:16:00,53.4,28.0,30.16,SE,143,4.0,7.0,38,0.00,,,0.00,0,weatherlink.com 1.10,2013-03-09 07:16:00,
2013-03-09 01:31:00,53.4,29.0,30.16,SE,129,2.0,11.0,39,0.00,,,0.00,0,weatherlink.com 1.10,2013-03-09 07:31:00,
2013-03-09 01:46:00,53.1,29.0,30.15,SE,143,4.0,9.0,39,0.00,,,0.00,0,weatherlink.com 1.10,2013-03-09 07:46:00,
2013-03-09 02:01:00,53.0,29.0,30.15,SE,126,3.0,8.0,40,0.00,,,0.00,0,weatherlink.com 1.10,2013-03-09 08:01:00,
2013-03-09 02:16:00,52.8,29.0,30.14,ESE,122,3.0,8.0,40,0.00,,,0.00,0,weatherlink.com 1.10,2013-03-09 08:16:00,
2013-03-09 02:31:00,52.6,29.0,30.13,SE,130,4.0,8.0,41,0.00,,,0.00,0,weatherlink.com 1.10,2013-03-09 08:31:00,
2013-03-09 02:47:00,52.5,29.0,30.12,ESE,102,6.0,8.0,41,0.00,,,0.00,0,weatherlink.com 1.10,2013-03-09 08:47:00,
2013-03-09 03:17:00,52.6,30.0,30.11,ESE,111,1.0,9.0,42,0.00,,,0.00,0,weatherlink.com 1.10,2013-03-09 09:17:00,
2013-03-09 03:32:00,52.5,30.0,30.09,ESE,103,3.0,9.0,42,0.00,,,0.00,0,weatherlink.com 1.10,2013-03-09 09:32:00,
2013-03-09 03:47:00,52.6,30.0,30.10,SE,124,9.0,10.0,42,0.00,,,0.00,0,weatherlink.com 1.10,2013-03-09 09:47:00,
2013-03-09 04:02:00,52.6,30.0,30.10,ESE,110,5.0,10.0,42,0.00,,,0.00,0,weatherlink.com 1.10,2013-03-09 10:02:00,
2013-03-09 04:17:00,52.5,30.0,30.09,ESE,112,4.0,6.0,42,0.00,,,0.00,0,weatherlink.com 1.10,2013-03-09 10:17:00,
2013-03-09 04:32:00,52.6,30.0,30.11,SE,143,1.0,5.0,43,0.00,,,0.00,0,weatherlink.com 1.10,2013-03-09 10:32:00,
2013-03-09 04:47:00,52.3,31.0,30.12,SSW,207,0.0,2.0,45,0.00,,,0.00,0,weatherlink.com 1.10,2013-03-09 10:47:00,
2013-03-09 05:02:00,51.8,31.0,30.13,SSW,207,0.0,0.0,45,0.00,,,0.00,0,weatherlink.com 1.10,2013-03-09 11:02:00,
2013-03-09 05:17:00,51.4,30.0,30.13,SSW,207,0.0,1.0,44,0.00,,,0.00,0,weatherlink.com 1.10,2013-03-09 11:17:00,
2013-03-09 05:32:00,51.0,33.0,30.14,SSW,207,0.0,0.0,51,0.00,,,0.00,0,weatherlink.com 1.10,2013-03-09 11:32:00,
2013-03-09 05:47:00,50.7,32.0,30.14,SSW,207,1.0,3.0,50,0.00,,,0.00,0,weatherlink.com 1.10,2013-03-09 11:47:00,
2013-03-09 06:02:00,50.8,33.0,30.14,ESE,121,1.0,3.0,50,0.00,,,0.00,0,weatherlink.com 1.10,2013-03-09 12:02:00,
2013-03-09 06:17:00,51.1,33.0,30.15,SE,137,1.0,4.0,50,0.00,,,0.00,0,weatherlink.com 1.10,2013-03-09 12:17:00,
2013-03-09 06:33:00,51.2,32.0,30.14,SE,132,2.0,3.0,48,0.00,,,0.00,0,weatherlink.com 1.10,2013-03-09 12:33:00,
2013-03-09 06:48:00,51.5,32.0,30.14,ESE,120,4.0,6.0,47,0.00,,,0.00,11,weatherlink.com 1.10,2013-03-09 12:48:00,
2013-03-09 07:03:00,51.8,32.0,30.13,ESE,103,3.0,8.0,47,0.00,,,0.00,18,weatherlink.com 1.10,2013-03-09 13:03:00,
2013-03-09 07:18:00,52.1,32.0,30.15,SSE,156,5.0,6.0,46,0.00,,,0.00,28,weatherlink.com 1.10,2013-03-09 13:18:00,
2013-03-09 07:33:00,52.2,32.0,30.14,SE,130,4.0,8.0,47,0.00,,,0.00,49,weatherlink.com 1.10,2013-03-09 13:33:00,
2013-03-09 07:48:00,52.4,32.0,30.15,South,183,2.0,6.0,47,0.00,,,0.00,53,weatherlink.com 1.10,2013-03-09 13:48:00,
2013-03-09 08:04:00,53.0,33.0,30.14,ESE,121,5.0,8.0,46,0.00,,,0.00,130,weatherlink.com 1.10,2013-03-09 14:04:00,
2013-03-09 08:20:00,54.7,32.0,30.13,SSE,160,6.0,13.0,43,0.00,,,0.00,394,weatherlink.com 1.10,2013-03-09 14:20:00,
2013-03-09 08:35:00,55.1,33.0,30.15,SSE,168,3.0,11.0,44,0.00,,,0.00,127,weatherlink.com 1.10,2013-03-09 14:35:00,
2013-03-09 08:50:00,55.7,33.0,30.12,East,89,7.0,11.0,43,0.00,,,0.00,255,weatherlink.com 1.10,2013-03-09 14:50:00,
2013-03-09 09:05:00,56.5,34.0,30.13,SSE,152,4.0,10.0,43,0.00,,,0.00,199,weatherlink.com 1.10,2013-03-09 15:05:00,
2013-03-09 09:21:00,56.5,33.0,30.13,South,172,4.0,9.0,41,0.00,,,0.00,165,weatherlink.com 1.10,2013-03-09 15:21:00,
2013-03-09 09:35:00,56.4,33.0,30.14,SE,134,4.0,9.0,42,0.00,,,0.00,123,weatherlink.com 1.10,2013-03-09 15:35:00,
2013-03-09 09:51:00,57.7,33.0,30.13,SE,130,4.0,9.0,40,0.00,,,0.00,225,weatherlink.com 1.10,2013-03-09 15:51:00,
2013-03-09 10:07:00,58.5,34.0,30.12,SE,143,5.0,9.0,40,0.00,,,0.00,350,weatherlink.com 1.10,2013-03-09 16:07:00,
2013-03-09 10:21:00,59.6,34.0,30.11,SSE,151,5.0,11.0,38,0.00,,,0.00,276,weatherlink.com 1.10,2013-03-09 16:21:00,
2013-03-09 10:37:00,60.4,35.0,30.11,SSE,160,6.0,11.0,39,0.00,,,0.00,366,weatherlink.com 1.10,2013-03-09 16:37:00,
2013-03-09 10:51:00,62.8,35.0,30.11,SSE,165,7.0,15.0,35,0.00,,,0.00,334,weatherlink.com 1.10,2013-03-09 16:51:00,
2013-03-09 11:07:00,62.9,35.0,30.09,SSE,153,10.0,14.0,35,0.00,,,0.00,306,weatherlink.com 1.10,2013-03-09 17:07:00,
2013-03-09 11:23:00,63.9,36.0,30.09,South,183,8.0,15.0,35,0.00,,,0.00,388,weatherlink.com 1.10,2013-03-09 17:23:00,
2013-03-09 11:38:00,64.7,35.0,30.09,SSE,166,6.0,17.0,33,0.00,,,0.00,362,weatherlink.com 1.10,2013-03-09 17:38:00,
2013-03-09 11:53:00,65.7,36.0,30.08,South,191,11.0,17.0,33,0.00,,,0.00,330,weatherlink.com 1.10,2013-03-09 17:53:00,
2013-03-09 12:08:00,64.9,34.0,30.08,South,173,6.0,18.0,32,0.00,,,0.00,230,weatherlink.com 1.10,2013-03-09 18:08:00,
2013-03-09 12:22:00,64.9,34.0,30.07,SSW,195,9.0,13.0,32,0.00,,,0.00,272,weatherlink.com 1.10,2013-03-09 18:22:00,
2013-03-09 12:38:00,65.3,34.0,30.05,SSE,147,4.0,17.0,31,0.00,,,0.00,306,weatherlink.com 1.10,2013-03-09 18:38:00,
2013-03-09 12:53:00,65.6,35.0,30.04,South,175,10.0,12.0,32,0.00,,,0.00,325,weatherlink.com 1.10,2013-03-09 18:53:00,
2013-03-09 13:08:00,65.9,35.0,30.04,South,183,9.0,14.0,32,0.00,,,0.00,297,weatherlink.com 1.10,2013-03-09 19:08:00,
2013-03-09 13:25:00,66.1,35.0,30.04,South,185,8.0,11.0,32,0.00,,,0.00,308,weatherlink.com 1.10,2013-03-09 19:25:00,
2013-03-09 13:39:00,67.3,36.0,30.02,SSE,168,8.0,14.0,31,0.00,,,0.00,506,weatherlink.com 1.10,2013-03-09 19:39:00,
2013-03-09 13:54:00,68.7,36.0,30.01,SSE,147,10.0,17.0,30,0.00,,,0.00,373,weatherlink.com 1.10,2013-03-09 19:54:00,
2013-03-09 14:10:00,69.4,35.0,30.00,SSW,193,8.0,15.0,28,0.00,,,0.00,856,weatherlink.com 1.10,2013-03-09 20:10:00,
2013-03-09 14:25:00,68.4,36.0,30.00,South,184,8.0,15.0,30,0.00,,,0.00,297,weatherlink.com 1.10,2013-03-09 20:25:00,
2013-03-09 14:40:00,68.1,35.0,30.00,ESE,118,9.0,15.0,29,0.00,,,0.00,446,weatherlink.com 1.10,2013-03-09 20:40:00,
2013-03-09 14:56:00,68.0,34.0,29.98,South,187,7.0,16.0,28,0.00,,,0.00,269,weatherlink.com 1.10,2013-03-09 20:56:00,
2013-03-09 15:11:00,68.2,35.0,29.98,SSE,168,4.0,14.0,29,0.00,,,0.00,257,weatherlink.com 1.10,2013-03-09 21:11:00,
2013-03-09 15:26:00,67.8,34.0,29.98,SE,135,7.0,13.0,29,0.00,,,0.00,207,weatherlink.com 1.10,2013-03-09 21:26:00,
2013-03-09 15:41:00,68.1,35.0,29.97,SSE,147,6.0,12.0,30,0.00,,,0.00,155,weatherlink.com 1.10,2013-03-09 21:41:00,
2013-03-09 15:56:00,68.0,34.0,29.97,SSE,147,8.0,14.0,29,0.00,,,0.00,151,weatherlink.com 1.10,2013-03-09 21:56:00,
2013-03-09 16:11:00,67.6,35.0,29.96,SE,142,9.0,12.0,30,0.00,,,0.00,91,weatherlink.com 1.10,2013-03-09 22:11:00,
2013-03-09 16:27:00,67.4,35.0,29.96,South,174,7.0,14.0,30,0.00,,,0.00,60,weatherlink.com 1.10,2013-03-09 22:27:00,
2013-03-09 16:42:00,67.2,35.0,29.96,SSE,158,3.0,13.0,30,0.00,,,0.00,54,weatherlink.com 1.10,2013-03-09 22:42:00,
2013-03-09 16:57:00,67.5,35.0,29.96,South,170,6.0,11.0,30,0.00,,,0.00,153,weatherlink.com 1.10,2013-03-09 22:57:00,
2013-03-09 17:13:00,68.0,35.0,29.95,South,185,5.0,14.0,30,0.00,,,0.00,113,weatherlink.com 1.10,2013-03-09 23:13:00,
2013-03-09 17:27:00,67.9,35.0,29.95,SSE,158,6.0,12.0,30,0.00,,,0.00,77,weatherlink.com 1.10,2013-03-09 23:27:00,
2013-03-09 17:43:00,66.8,36.0,29.95,SSE,165,4.0,6.0,32,0.00,,,0.00,28,weatherlink.com 1.10,2013-03-09 23:43:00,
2013-03-09 17:58:00,66.0,36.0,29.96,SSE,167,0.0,4.0,33,0.00,,,0.00,7,weatherlink.com 1.10,2013-03-09 23:58:00,
2013-03-09 18:13:00,64.9,36.0,29.96,SSE,167,1.0,3.0,34,0.00,,,0.00,0,weatherlink.com 1.10,2013-03-10 00:13:00,
2013-03-09 18:28:00,64.2,37.0,29.96,SSE,167,2.0,3.0,36,0.00,,,0.00,0,weatherlink.com 1.10,2013-03-10 00:28:00,
2013-03-09 18:43:00,63.4,37.0,29.96,SSE,167,1.0,4.0,38,0.00,,,0.00,0,weatherlink.com 1.10,2013-03-10 00:43:00,
2013-03-09 18:58:00,63.1,38.0,29.95,SSE,167,2.0,5.0,39,0.00,,,0.00,0,weatherlink.com 1.10,2013-03-10 00:58:00,
2013-03-09 19:15:00,63.0,39.0,29.94,SE,124,4.0,7.0,41,0.00,,,0.00,0,weatherlink.com 1.10,2013-03-10 01:15:00,
2013-03-09 19:30:00,63.0,39.0,29.93,ESE,112,2.0,7.0,41,0.00,,,0.00,0,weatherlink.com 1.10,2013-03-10 01:30:00,
2013-03-09 19:45:00,62.7,39.0,29.93,SE,132,3.0,6.0,42,0.00,,,0.00,0,weatherlink.com 1.10,2013-03-10 01:45:00,
2013-03-09 20:00:00,62.5,39.0,29.93,SSE,150,6.0,7.0,42,0.00,,,0.00,0,weatherlink.com 1.10,2013-03-10 02:00:00,
2013-03-09 20:16:00,62.5,39.0,29.93,SE,135,2.0,9.0,42,0.00,,,0.00,0,weatherlink.com 1.10,2013-03-10 02:16:00,
2013-03-09 20:30:00,61.9,40.0,29.93,SE,128,1.0,7.0,44,0.00,,,0.00,0,weatherlink.com 1.10,2013-03-10 02:30:00,
2013-03-09 20:45:00,61.8,39.0,29.94,SSE,164,5.0,8.0,44,0.00,,,0.00,0,weatherlink.com 1.10,2013-03-10 02:45:00,
2013-03-09 21:01:00,61.4,40.0,29.94,ESE,110,4.0,7.0,45,0.00,,,0.00,0,weatherlink.com 1.10,2013-03-10 03:01:00,
2013-03-09 21:15:00,61.1,40.0,29.94,SSE,157,4.0,7.0,46,0.00,,,0.00,0,weatherlink.com 1.10,2013-03-10 03:15:00,
2013-03-09 21:31:00,61.2,40.0,29.93,SE,126,3.0,9.0,46,0.00,,,0.00,0,weatherlink.com 1.10,2013-03-10 03:31:00,
2013-03-09 21:46:00,61.6,40.0,29.93,SE,141,5.0,11.0,45,0.00,,,0.00,0,weatherlink.com 1.10,2013-03-10 03:46:00,
2013-03-09 22:02:00,61.7,40.0,29.93,SSE,155,3.0,9.0,45,0.00,,,0.00,0,weatherlink.com 1.10,2013-03-10 04:02:00,
2013-03-09 22:17:00,61.6,40.0,29.93,SSE,148,4.0,9.0,45,0.00,,,0.00,0,weatherlink.com 1.10,2013-03-10 04:17:00,
2013-03-09 22:32:00,61.7,40.0,29.93,SE,124,4.0,10.0,45,0.00,,,0.00,0,weatherlink.com 1.10,2013-03-10 04:32:00,
2013-03-09 22:46:00,61.9,40.0,29.92,South,170,5.0,9.0,45,0.00,,,0.00,0,weatherlink.com 1.10,2013-03-10 04:46:00,
2013-03-09 23:01:00,62.4,41.0,29.92,SSE,161,5.0,12.0,45,0.00,,,0.00,0,weatherlink.com 1.10,2013-03-10 05:01:00,
2013-03-09 23:16:00,62.5,41.0,29.92,SSE,164,6.0,13.0,45,0.00,,,0.00,0,weatherlink.com 1.10,2013-03-10 05:16:00,
2013-03-09 23:31:00,62.6,41.0,29.93,SE,139,5.0,13.0,45,0.00,,,0.00,0,weatherlink.com 1.10,2013-03-10 05:31:00,
2013-03-09 23:46:00,62.6,41.0,29.93,SE,139,8.0,12.0,46,0.00,,,0.00,0,weatherlink.com 1.10,2013-03-10 05:46:00,